TIME,DELAY(SENSOR),PRES,OXYGEN,RAWTEMP,T(OPTODE),TCPHASE,FLUOR,BETA(BETA700),BETA(BETA412),BETA(BETA440),CDOM,C(CSC),ED(ED412.40),ED(ED444.00),ED(ED489.70),ED(ED554.30),LU(LU411.80),LU(LU443.40),LU(LU489.60),LU(LU554.10),COMP,TILTX,TILTY,CHECK
1334462125,5810,897.0700073242188000,41.9206581115722660,662.2460937500000000,4.5539989471435550,54.7306785583496100,53,102,88,80,83,15260,2147756388,2147422098,2148011245,2147872676,2147640210,2147068571,2148262016,2147203401,1861,4,13,58724
1334465721,5808,968.8200073242188000,45.9923591613769500,670.6333007812500000,4.2772750854492190,54.2409591674804700,52,100,88,80,84,15260,2147760987,2147424054,2148006564,2147875428,2147640877,2147064100,2148266166,2147202322,3515,4,13,12935
1334469321,5807,987.6500244140625000,47.0046386718750000,672.3737182617188000,4.2197551727294920,54.1180992126464840,53,99,87,81,83,15261,2147759515,2147424246,2148008320,2147872914,2147642660,2147066121,2148268754,2147202715,2794,4,14,37676
1334472921,5810,1004.2100219726562000,46.5000305175781250,672.4221801757812000,4.2181491851806640,54.1897201538085940,54,101,86,79,83,15262,2147758409,2147421540,2148005741,2147873581,2147642395,2147068717,2148265910,2147199424,3216,4,13,9569
1334476521,5809,1006.5200195312500000,45.9533615112304700,671.8182983398438000,4.2381129264831540,54.2571907043457000,53,98,86,78,84,15263,2147761718,2147421632,2148006345,2147876534,2147642569,2147071542,2148268388,2147204690,369,4,13,1058
1334480121,5809,1005.8400268554688000,45.8891410827636700,672.1928710937500000,4.2257308959960940,54.2780494689941400,53,100,88,80,84,15260,2147760566,2147422646,2148010011,2147873846,2147643638,2147065892,2148264484,2147201097,367,4,13,9047
1334483721,5807,1006.8099975585938000,45.7806205749511700,672.1613159179688000,4.2267742156982420,54.2918701171875000,53,103,92,80,82,15261,2147760676,2147417865,2148007890,2147875922,2147640713,2147063844,2148263213,2147205549,3470,4,13,41625
1334487321,5807,1007.5599975585938000,45.6858787536621100,672.2188110351562000,4.2248740196228030,54.3057518005371100,53,100,90,79,84,15262,2147763437,2147420589,2148008237,2147875181,2147642075,2147063378,2148264594,2147200585,3541,4,13,55438
1334490921,5810,1004.0100097656250000,45.9856109619140600,673.2940063476562000,4.1893219947814940,54.2776908874511700,52,99,89,79,82,15260,2147761261,2147421257,2148005577,2147876781,2147643474,2147068205,2148263378,2147199533,163,4,13,39213
1334494521,5809,1007.2700195312500000,46.4109916687011700,674.2393188476562000,4.1580538749694820,54.2281608581543000,52,100,88,80,83,15262,2147761106,2147422125,2148005394,2147873289,2147643593,2147065545,2148266066,2147200466,246,4,13,33301
1334498121,5810,1017.2199707031250000,46.2561492919921900,673.2609252929688000,4.1904177665710450,54.2380104064941400,53,100,88,80,84,15257,2147759140,2147420845,2148004425,2147874541,2147643017,2147063259,2148264265,2147200210,102,4,13,53070
1334501721,5807,1013.2199707031250000,45.6205291748046900,672.9259033203125000,4.2014961242675780,54.3235206604003900,54,103,89,80,84,15258,2147764928,2147418285,2148005595,2147873179,2147642642,2147060873,2148261915,2147200329,881,4,13,48895
1334505321,5812,1012.8599853515625000,46.0611495971679700,673.6649169921875000,4.1770567893981930,54.2681694030761700,52,100,91,80,84,15257,2147758162,2147422134,2148003419,2147876982,2147641133,2147065974,2148259739,2147201005,3374,4,14,36615
1334508921,5807,1001.5100097656250000,46.0553398132324200,674.1348876953125000,4.1615090370178220,54.2762107849121100,53,100,90,81,83,15261,2147761426,2147418413,2148005101,2147874706,2147644141,2147066276,2148263689,2147198546,701,4,13,17661
1334512521,5810,1006.3400268554688000,47.3120193481445300,676.8784790039062000,4.0707068443298340,54.1287612915039060,53,100,89,80,82,15259,2147760411,2147420096,2148004068,2147874724,2147645952,2147065472,2148264685,2147198217,2961,4,14,41859
1334516121,5807,1000.5300292968750000,47.4477310180664060,676.8408813476562000,4.0719509124755860,54.1087417602539060,52,118,84,81,84,15261,2147759469,2147418752,2148005229,2147870921,2147642304,2147067492,2148261312,2147198701,2962,4,13,42811
1334519721,5807,1021.9699707031250000,46.8857612609863300,675.1478881835938000,4.1279911994934080,54.1675300598144500,53,100,87,80,83,15248,2147759652,2147422628,2148006528,2147874898,2147647140,2147064091,2148266221,2147200457,622,4,13,59818
1334523321,5807,1025.2399902343750000,46.2548904418945300,674.0228271484375000,4.1652159690856930,54.2464904785156250,52,103,89,79,83,15253,2147759186,2147422061,2148006043,2147873408,2147642678,2147067474,2148268361,2147197366,2989,4,13,45558
1334526921,5810,1023.9799804687500000,45.2833786010742200,672.2435302734375000,4.2240557670593260,54.3600997924804700,53,101,86,79,83,15253,2147760960,2147423442,2148004534,2147874514,2147640374,2147063177,2148262290,2147200896,357,4,13,10039
1334530521,5808,1012.4099731445312000,45.7528381347656250,674.3939819335938000,4.1529369354248050,54.3238792419433600,53,99,87,79,83,15255,2147763373,2147422189,2148005613,2147872576,2147643538,2147067739,2148265554,2147198555,3527,4,13,21501
1334534121,5805,1014.9400024414062000,45.9941787719726560,674.6027832031250000,4.1460299491882320,54.2934989929199200,53,100,86,79,83,15252,2147761508,2147422537,2148007323,2147873408,2147642020,2147066139,2148263414,2147202989,3086,4,13,4162
1334537721,5808,1020.3499755859375000,45.8802795410156250,674.4932250976562000,4.1496558189392090,54.3019104003906250,53,99,90,80,84,15253,2147756818,2147421787,2148007451,2147874587,2147643739,2147067154,2148263981,2147201270,3305,4,13,970
1334541321,5810,1016.7600097656250000,45.8958816528320300,674.3375244140625000,4.1548080444335940,54.3017311096191400,52,98,88,80,84,15248,2147760566,2147421522,2148003721,2147874934,2147642596,2147064393,2148263945,2147203126,3147,4,13,17169
1334544921,5808,1023.4099731445312000,46.1459617614746100,674.2393798828125000,4.1580519676208500,54.2637290954589840,53,100,88,79,84,15242,2147764534,2147420214,2148004352,2147876763,2147641947,2147067062,2148264859,2147201161,294,4,13,59179
1334548521,5810,1023.0499877929688000,45.8909988403320300,673.7495117187500000,4.1742568016052250,54.2918510437011700,52,97,87,79,84,15244,2147761938,2147421101,2148003858,2147874331,2147642880,2147070089,2148264685,2147202797,122,4,13,38390
1334552121,5809,1013.3900146484375000,45.8734588623046900,674.3931884765625000,4.1529622077941895,54.3067016601562500,53,126,89,78,83,15245,2147762971,2147420269,2148003611,2147872822,2147641828,2147068772,2148265837,2147205257,39,4,13,37183
1334555721,5806,1018.6300048828125000,46.2237014770507800,675.7299194335938000,4.1087322235107420,54.2674598693847660,51,98,90,80,85,15239,2147761033,2147420205,2148004214,2147874386,2147640027,2147064722,2148265618,2147197878,3502,4,13,6250
1334559321,5807,1019.5200195312500000,46.5533714294433600,675.3709716796875000,4.1206088066101070,54.2197608947753900,53,99,90,80,84,15239,2147760054,2147422144,2148005193,2147876507,2147642962,2147061513,2148265170,2147203638,3389,4,13,1000
1334562921,5809,1019.5599975585938000,46.1776695251464840,674.5034179687500000,4.1493191719055180,54.2591400146484400,53,99,88,79,84,15237,2147758070,2147421796,2148006976,2147872841,2147639716,2147063862,2148262436,2147204562,3430,4,13,42191
1334566521,5808,1024.1199951171875000,46.0887489318847660,674.4232788085938000,4.1519660949707030,54.2759895324707000,53,99,86,78,84,15236,2147757129,2147420672,2148006445,2147875163,2147639826,2147061778,2148264676,2147200841,3227,4,13,932
1334570121,5810,1022.1699829101562000,45.7955207824707000,673.5963745117188000,4.1793208122253420,54.3031997680664060,53,98,93,79,83,15240,2147757952,2147421092,2148005476,2147871241,2147644617,2147060333,2148264374,2147203218,408,4,13,7087
1334573721,5807,1015.3499755859375000,45.9248809814453100,675.4329833984375000,4.1185550689697270,54.3108291625976560,52,100,88,79,84,15234,2147761243,2147422180,2148004105,2147873106,2147645339,2147060809,2148264128,2147204132,155,4,13,53793
1334577321,5810,1012.5000000000000000,46.1365585327148440,675.3275146484375000,4.1220469474792480,54.2790908813476560,52,100,90,79,84,15237,2147759012,2147422838,2148007222,2147873481,2147642678,2147066331,2148266413,2147200905,225,5,13,10138
1334580921,5811,1018.5300292968750000,46.1819496154785160,675.2197265625000000,4.1256179809570310,54.2700004577636700,52,98,90,79,83,15236,2147756507,2147416448,2148009709,2147874806,2147641654,2147066267,2148266285,2147199899,101,4,13,64686
1334584521,5811,1027.9499511718750000,46.4823417663574200,674.5872192382812000,4.1465449333190920,54.2182884216308600,53,98,85,79,83,15235,2147756946,2147420754,2148005202,2147876260,2147640859,2147065536,2148265792,2147205869,3112,4,13,50039
1334588121,5807,1029.1899414062500000,46.2476806640625000,674.1298217773438000,4.1616778373718260,54.2508888244628900,53,100,87,79,84,15233,2147756681,2147421833,2148005531,2147875035,2147644388,2147068672,2148263762,2147205028,569,4,13,57469
1334591721,5808,1031.0000000000000000,45.9377212524414060,673.5017700195312000,4.1824488639831540,54.2851905822753900,53,102,89,80,83,15227,2147757056,2147418944,2148005193,2147872658,2147641517,2147064466,2148263259,2147205869,3467,4,13,23346
1334595321,5805,1023.9899902343750000,45.3872489929199200,674.1281127929688000,4.1617360115051270,54.3706283569335940,52,98,87,80,85,15224,2147761124,2147420480,2148005147,2147873481,2147640018,2147067830,2148264832,2147204525,398,4,13,42110
1334598921,5811,1029.7800292968750000,46.3021507263183600,674.4442749023438000,4.1512742042541500,54.2423591613769500,53,104,90,79,83,15231,2147758857,2147421348,2148004534,2147873920,2147641600,2147062363,2148264228,2147204818,398,4,13,57703
1334602521,5813,1019.8400268554688000,45.8657989501953100,674.9855957031250000,4.1333642005920410,54.3163108825683600,54,101,87,78,83,15226,2147753910,2147422080,2148006976,2147871204,2147645558,2147066157,2148263936,2147202194,36,4,13,28590
1334606155,5809,1021.0900268554688000,45.7887115478515600,675.2313232421875000,4.1252331733703610,54.3238105773925800,52,107,88,80,83,15247,2147758537,2147422299,2148006345,2147873325,2147643209,2147066349,2148266825,2147199643,64,5,13,28350
